EW3693 Weather Reports


Display with metric or nautical units.
time (UTC)temp
F
wind
direction
speed
MPH
gust
MPH
rain 1hr
in
rain 24hr
in
rain mn
in
humidity
%
barometer
mb
20260906140537 69 0 4.0 9.0 0.00 0.06 0.01 71 1025.9
20260906135516 67 0 5.0 9.0 0.00 0.06 0.01 77 1026.0
20260906134517 66 0 8.0 12.0 0.00 0.06 0.01 77 1026.2
20260906133517 67 0 8.0 13.0 0.00 0.06 0.01 78 1026.2
20260906132516 67 0 10.0 14.0 0.00 0.06 0.01 75 1026.2
20260906131517 70 0 8.0 13.0 0.00 0.06 0.01 71 1026.2
20260906130516 69 0 9.0 13.0 0.00 0.06 0.01 71 1026.2
20260906125516 72 0 8.0 13.0 0.00 0.08 0.01 76 1026.3
20260906124517 69 0 8.0 13.0 0.00 0.08 0.01 74 1026.4
20260906123536 66 0 10.0 12.0 0.00 0.08 0.01 76 1026.3
20260906122518 65 0 10.0 13.0 0.00 0.08 0.01 76 1026.3
20260906121518 65 0 9.0 14.0 0.00 0.08 0.01 75 1026.4
20260906120519 66 0 9.0 12.0 0.00 0.08 0.01 73 1026.4
20260906115517 67 0 9.0 14.0 0.00 0.27 0.01 73 1026.3
20260906114518 68 0 12.0 16.0 0.00 0.27 0.01 74 1026.4
20260906113518 65 0 12.0 16.0 0.00 0.27 0.01 75 1026.4
20260906112518 65 0 13.0 17.0 0.00 0.27 0.01 76 1026.4
20260906111518 68 0 13.0 18.0 0.00 0.27 0.01 70 1026.4
20260906110518 65 0 12.0 18.0 0.00 0.27 0.01 75 1026.3
20260906105518 67 0 11.0 16.0 0.00 0.27 0.01 76 1026.2
20260906104518 65 0 12.0 17.0 0.00 0.27 0.01 74 1026.3
20260906103518 68 0 15.0 21.0 0.00 0.27 0.01 73 1026.2
20260906102518 67 0 11.0 18.0 0.00 0.27 0.01 75 1026.3
20260906101558 66 0 12.0 19.0 0.00 0.27 0.01 75 1026.1
20260906100518 66 0 11.0 15.0 0.00 0.27 0.01 74 1026.1
20260906095518 64 0 9.0 13.0 0.00 0.27 0.01 80 1026.1
20260906094518 64 0 12.0 16.0 0.00 0.27 0.01 79 1026.0
20260906093538 63 0 10.0 16.0 0.00 0.27 0.01 79 1026.0
20260906092518 64 0 12.0 16.0 0.00 0.27 0.01 79 1025.9
20260906091518 64 0 11.0 13.0 0.00 0.27 0.01 81 1025.9
20260906090518 63 0 13.0 16.0 0.00 0.27 0.01 81 1025.9
20260906085538 63 0 12.0 15.0 0.00 0.27 0.01 79 1025.9
20260906084518 62 0 10.0 15.0 0.00 0.27 0.01 80 1025.8
20260906083558 62 0 9.0 13.0 0.00 0.27 0.01 84 1025.7
20260906082538 62 0 7.0 10.0 0.00 0.27 0.01 85 1025.7
20260906081518 61 0 10.0 15.0 0.00 0.27 0.01 86 1025.6
20260906080518 61 0 11.0 14.0 0.00 0.27 0.01 86 1025.6
20260906075518 60 0 11.0 16.0 0.00 0.27 0.01 87 1025.6
20260906074538 60 0 12.0 15.0 0.00 0.27 0.01 89 1025.5
20260906073517 59 0 11.0 15.0 0.00 0.27 0.01 89 1025.5
20260906072517 58 0 11.0 15.0 0.00 0.27 0.01 90 1025.4
20260906071538 58 0 11.0 15.0 0.00 0.27 0.01 93 1025.3
20260906070517 57 0 12.0 15.0 0.00 0.27 0.01 92 1025.3
20260906065517 57 0 12.0 15.0 0.00 0.27 0.01 94 1025.1
20260906064518 56 0 9.0 12.0 0.00 0.27 0.01 95 1025.1
20260906063517 55 0 8.0 11.0 0.00 0.27 0.01 95 1024.9
20260906062518 55 0 9.0 12.0 0.00 0.27 0.01 96 1024.7
20260906061538 54 0 10.0 12.0 0.00 0.27 0.01 97 1024.6
20260906060517 53 0 9.0 11.0 0.00 0.27 0.01 97 1024.6
20260906055518 53 0 7.0 11.0 0.00 0.27 0.01 97 1024.4
20260906054538 52 0 6.0 10.0 0.00 0.27 0.01 97 1024.3
20260906053517 52 0 7.0 10.0 0.00 0.27 0.01 97 1024.3
20260906052518 51 0 6.0 9.0 0.00 0.27 0.01 98 1024.1
20260906051537 51 0 8.0 10.0 0.00 0.27 0.01 97 1024.0
20260906050517 51 0 7.0 11.0 0.00 0.27 0.01 97 1024.0
20260906045518 51 0 7.0 9.0 0.00 0.27 0.01 98 1023.9
20260906044518 50 0 8.0 12.0 0.00 0.27 0.01 97 1023.7
20260906043538 51 0 7.0 9.0 0.00 0.27 0.01 97 1023.7
20260906042517 51 0 7.0 10.0 0.00 0.27 0.01 97 1023.6
20260906041517 51 0 8.0 11.0 0.01 0.27 0.01 97 1023.6
20260906040517 51 0 9.0 13.0 0.01 0.27 0.01 97 1023.4
20260906035517 51 0 10.0 13.0 0.01 0.27 0.01 97 1023.4
20260906034517 52 0 9.0 12.0 0.01 0.27 0.01 97 1023.3
20260906033517 51 0 9.0 12.0 0.01 0.27 0.01 97 1023.3
20260906032517 51 0 8.0 11.0 0.01 0.27 0.01 97 1023.2
20260906031517 51 0 8.0 11.0 0.00 0.26 0.00 97 1023.2
20260906030517 51 0 9.0 12.0 0.00 0.26 0.00 97 1023.1
20260906025557 51 0 9.0 12.0 0.00 0.26 0.00 97 1023.0
20260906024517 51 0 10.0 14.0 0.00 0.26 0.00 97 1022.9
20260906023517 51 0 8.0 10.0 0.00 0.26 0.00 97 1023.0
20260906022517 51 0 8.0 10.0 0.00 0.26 0.00 97 1022.8
20260906021517 51 0 8.0 11.0 0.00 0.26 0.00 97 1022.7
20260906020517 51 0 8.0 11.0 0.00 0.26 0.00 97 1022.6
20260906015517 52 0 9.0 11.0 0.00 0.26 0.00 97 1022.6
20260906014517 52 0 9.0 12.0 0.00 0.26 0.00 97 1022.5
20260906013517 52 0 9.0 11.0 0.00 0.26 0.00 97 1022.4
20260906012537 52 0 9.0 11.0 0.00 0.26 0.00 97 1022.3
20260906011517 52 0 8.0 10.0 0.00 0.26 0.00 97 1022.2
20260906010517 52 0 8.0 11.0 0.00 0.26 0.00 97 1022.2
20260906005517 52 0 8.0 11.0 0.00 0.26 0.00 97 1022.2
20260906004537 52 0 9.0 11.0 0.00 0.26 0.00 97 1022.2
20260906003517 52 0 9.0 12.0 0.00 0.26 0.00 96 1022.0
20260906002537 52 0 8.0 11.0 0.00 0.26 0.00 96 1021.9
20260906001517 52 0 7.0 9.0 0.00 0.26 0.00 96 1021.8
20260906000517 52 0 6.0 8.0 0.00 0.26 0.00 96 1021.8
20260905235517 53 0 7.0 9.0 0.00 0.28 0.00 96 1021.7
20260905234517 53 0 9.0 12.0 0.00 0.28 0.00 96 1021.5
20260905233516 53 0 10.0 13.0 0.00 0.28 0.00 96 1021.6
20260905232536 53 0 9.0 12.0 0.00 0.28 0.00 96 1021.5
20260905231517 53 0 10.0 13.0 0.00 0.28 0.00 96 1021.4
20260905230517 53 0 11.0 15.0 0.00 0.28 0.00 96 1021.4
20260905225557 54 0 10.0 13.0 0.00 0.28 0.00 96 1021.4
20260905224517 54 0 11.0 14.0 0.00 0.28 0.00 96 1021.5
20260905223516 54 0 11.0 14.0 0.00 0.28 0.00 96 1021.3
20260905222516 54 0 11.0 14.0 0.00 0.28 0.00 96 1021.2
20260905221517 54 0 11.0 13.0 0.00 0.28 0.00 96 1021.1
20260905220517 54 0 11.0 14.0 0.00 0.28 0.00 96 1021.1
20260905215517 54 0 9.0 12.0 0.00 0.28 0.28 96 1021.0
20260905214516 54 0 10.0 13.0 0.00 0.28 0.28 96 1020.9
20260905213516 54 0 12.0 18.0 0.00 0.28 0.28 96 1020.8
20260905212516 54 0 11.0 15.0 0.00 0.28 0.28 96 1020.6
20260905211516 54 0 12.0 14.0 0.00 0.28 0.28 96 1020.5
20260905210517 54 0 10.0 14.0 0.00 0.28 0.28 95 1020.3
20260905205517 54 0 11.0 15.0 0.00 0.28 0.28 95 1020.2
20260905204516 54 0 10.0 13.0 0.00 0.28 0.28 95 1020.1
20260905203516 55 0 10.0 13.0 0.00 0.28 0.28 95 1020.0
20260905202517 55 0 11.0 14.0 0.00 0.28 0.28 95 1019.9
20260905201536 55 0 12.0 15.0 0.00 0.28 0.28 94 1019.8
20260905200516 55 0 12.0 15.0 0.00 0.28 0.28 94 1019.7
20260905195516 55 0 11.0 15.0 0.00 0.30 0.28 94 1019.7
20260905194516 55 0 11.0 15.0 0.00 0.30 0.28 93 1019.7
20260905193516 55 0 13.0 17.0 0.00 0.30 0.28 93 1019.4
20260905192516 55 0 11.0 15.0 0.00 0.30 0.28 93 1019.3
20260905191558 56 0 12.0 18.0 0.00 0.30 0.28 93 1019.3
20260905190538 56 0 14.0 19.0 0.00 0.30 0.28 93 1019.2
20260905185518 56 0 13.0 19.0 0.00 0.30 0.28 92 1019.2
20260905184516 56 0 11.0 14.0 0.00 0.30 0.28 92 1019.1
20260905183518 56 0 12.0 18.0 0.00 0.30 0.28 92 1018.9
20260905182518 56 0 11.0 15.0 0.00 0.30 0.28 92 1018.8
20260905181518 57 0 13.0 17.0 0.00 0.30 0.28 91 1018.6
20260905180518 57 0 13.0 18.0 0.00 0.30 0.28 91 1018.5
20260905175519 57 0 13.0 19.0 0.00 0.30 0.28 91 1018.3
20260905174518 57 0 11.0 14.0 0.00 0.30 0.28 91 1018.2
20260905173518 58 0 12.0 20.0 0.00 0.30 0.28 90 1018.1
20260905172518 58 0 13.0 17.0 0.00 0.30 0.28 88 1018.1
20260905171518 59 0 19.0 27.0 0.00 0.30 0.28 88 1017.9
20260905170518 59 0 17.0 24.0 0.00 0.30 0.28 90 1017.9
20260905165538 60 0 15.0 20.0 0.00 0.31 0.28 90 1017.7
20260905164518 59 0 15.0 21.0 0.00 0.31 0.28 90 1017.6
20260905163538 59 0 19.0 24.0 0.00 0.31 0.28 89 1017.4
20260905162518 59 0 17.0 21.0 0.00 0.31 0.28 89 1017.1
20260905161538 60 0 20.0 27.0 0.00 0.31 0.28 89 1017.0
20260905160518 61 0 22.0 31.0 0.00 0.31 0.28 89 1016.7
20260905155518 60 0 15.0 22.0 0.00 0.34 0.28 91 1016.5
20260905154518 60 0 16.0 20.0 0.06 0.34 0.28 91 1016.4
20260905153518 60 0 20.0 26.0 0.06 0.34 0.28 92 1016.2
20260905152558 60 0 20.0 28.0 0.06 0.34 0.28 94 1016.3
20260905151538 60 0 21.0 36.0 0.06 0.34 0.28 95 1016.1
20260905150538 60 0 15.0 19.0 0.06 0.34 0.28 94 1016.0
20260905145518 61 0 21.0 34.0 0.06 0.34 0.28 94 1016.0
20260905144518 62 0 15.0 23.0 0.00 0.28 0.22 91 1015.5
20260905143518 63 0 15.0 19.0 0.00 0.28 0.22 92 1015.4
20260905142518 61 0 15.0 21.0 0.00 0.28 0.22 90 1015.3
20260905141518 63 0 18.0 25.0 0.00 0.28 0.22 88 1015.1